This is the latest recevied weather packets stored in our database for station/object KM4LTG. If no packets are shown the sender has not sent any weather packets the latest 10 day(s).
| Time | Temp. | Humidity | Pressure | Rain* | Wind** | Luminosity | Snow |
|---|---|---|---|---|---|---|---|
| 1777832655 | 23.89° C | 64% | 1018.3 hPa | 0 mm | - | - | - |
| 1777832354 | 23.89° C | 63% | 1018.5 hPa | 0 mm | - | - | - |
| 1777832095 | 24.44° C | 62% | 1018.5 hPa | 0 mm | - | - | - |
| 1777831849 | 24.44° C | 62% | 1018.5 hPa | 0 mm | - | - | - |
| 1777831550 | 24.44° C | 63% | 1018.6 hPa | 0 mm | - | - | - |
| 1777831270 | 23.89° C | 63% | 1018.7 hPa | 0 mm | - | - | - |
| 1777831025 | 23.89° C | 64% | 1018.8 hPa | 0 mm | - | - | - |
| 1777830785 | 23.89° C | 64% | 1018.8 hPa | 0 mm | - | - | - |
| 1777830540 | 23.89° C | 64% | 1018.8 hPa | 0 mm | - | - | - |
| 1777830265 | 23.89° C | 64% | 1018.7 hPa | 0 mm | - | - | - |
| 1777829975 | 23.89° C | 65% | 1018.8 hPa | 0 mm | - | - | - |
| 1777829682 | 23.89° C | 64% | 1018.8 hPa | 0 mm | - | - | - |
| 1777829393 | 23.89° C | 65% | 1018.9 hPa | 0 mm | - | - | - |
| 1777829155 | 23.89° C | 65% | 1018.9 hPa | 0 mm | - | - | - |
| 1777828885 | 23.89° C | 64% | 1019 hPa | 0 mm | - | - | - |
| 1777828610 | 23.89° C | 64% | 1019 hPa | 0 mm | - | - | - |
| 1777828310 | 23.89° C | 65% | 1019 hPa | 0 mm | - | - | - |
| 1777828010 | 23.89° C | 65% | 1019.1 hPa | 0 mm | - | - | - |
| 1777827740 | 23.33° C | 66% | 1019.1 hPa | 0 mm | - | - | - |
| 1777827450 | 23.33° C | 66% | 1019 hPa | 0 mm | - | - | - |
| 1777827158 | 22.78° C | 66% | 1019 hPa | 0 mm | - | - | - |
| 1777826899 | 23.33° C | 65% | 1019.2 hPa | 0 mm | - | - | - |
| 1777826610 | 22.78° C | 66% | 1019.2 hPa | 0 mm | - | - | - |
| 1777826315 | 23.33° C | 66% | 1019.3 hPa | 0 mm | - | - | - |
| 1777826030 | 23.33° C | 65% | 1019.3 hPa | 0 mm | - | - | - |
* Rain latest hour (hover to see other rain measurements)
** Current wind speed in m/s (hover to see current wind gust speed)